Retour au catalogue

FREGAT DEB

LostUNKNOWN
NORAD 46008·DEBRIS·🇷🇺 Russia

Lancé Jul 18, 2011 depuis Baikonur Cosmodrome

Loading…

Prochains Passages (prochaines 24 heures)

TLE

PériméSource: Space-Track

Époque: Jan 25, 2022, 01:12 UTC

1 46008U 11037HK  22025.05061407  .00142910  00000-0  80960-1 0  9995
2 46008  50.9731 303.0235 1786042 181.4842 297.9029 11.22608640 61349

Suivez FREGAT DEB en temps réel avec AllMySat

Download on the App Store